Kezdőlap
METAR-TAF:

METAR-TAF

Repülőterek :

Fremont Municipal Airport

Fremont, Nebraska, Amerikai Egyesült Államok

földrajzi szélesség: 41-27N, földrajzi hosszúság: 096-31W, magasság: 379 m

Jelenlegi meteorológiai megfigyelések

A jelentés 23 perccel ezelõtt készült, 07:35 UTC
Nyugat-északnyugati szél 5 kt
Hőmérséklet 16°C
Páratartalom 100%
Légköri nyomás 1012 hPa
Látótávolság: 11.3 km
Borult 500 lábon

METAR: KFET 260735Z AUTO 29005KT 7SM OVC005 16/16 A2988 RMK AO2 T01580158

Idő: 02:58 (07:58 UTC)


TAF: hiányzik

Meteorológiai megfigyelések és előrejelzések több, mint 4000 repülőtéren (METAR és TAF jelentéseket).

A térképen piros és sárga pontok jelzik az elérhető meteorológiai állomásokat.

Mozgassa az egeret a pont fölött, hogy megjelenjen az állomás neve.

Azután kattintson az időjárási megfigyelések és előrejelzések megtekintéséhez.

A térkép megváltoztatása: kattintson a fekete keresztel jelölt zöld gombra ráközelítéshez, a vonallal jelölt zöld gombra távolításhoz, vagy a zöld nyilakra a szomszédos térképek eléréséhez.


METAR-TAF: